Theta_e
310 309 309 309 310 310 310 311 311 312 313 315 317 317 318 318 317 314 316 327 319 313 313 319 316 312 313 313 307 311 310 309 306 303 302 302 302 305 302 304 300 298 297 297 297 292 292 311 309 302 306 309 311 312
308 308 308 308 308 309 309 310 310 313 313 314 317 317 317 317 317 316 317 322 324 317 315 320 320 318 319 316 311 311 310 310 309 306 306 306 303 304 302 296 306 297 301 298 299 299 308 310 309 312 313 311 311 311
307 307 307 307 307 308 309 309 310 312 314 314 316 316 316 317 317 315 313 318 321 317 315 316 316 318 317 316 315 309 314 314 312 313 308 306 301 303 297 300 302 306 308 302 301 306 309 310 312 314 313 311 313 314
306 307 307 307 307 308 309 309 310 312 313 313 315 316 316 316 316 315 313 317 319 315 310 312 320 319 321 318 318 316 313 314 311 312 307 304 302 308 302 305 302 305 306 304 303 308 309 313 314 313 314 315 315 315
307 308 308 307 308 307 307 308 311 311 312 313 314 315 315 315 314 314 317 321 320 314 308 311 317 318 318 317 317 317 313 310 311 310 307 304 309 309 308 306 302 308 306 302 302 309 309 310 314 315 313 314 315 314
307 308 309 309 309 308 308 307 308 309 310 311 314 315 315 314 313 316 318 319 315 317 312 307 317 317 316 316 317 315 314 313 312 310 309 311 315 308 302 300 309 311 312 312 308 312 312 313 314 315 313 315 317 316
307 308 308 309 309 309 309 309 308 308 309 310 312 314 314 313 312 312 312 316 311 313 313 309 310 315 317 317 315 314 314 312 312 309 308 308 308 310 305 300 311 313 314 314 314 313 310 313 311 315 317 318 318 319
307 307 308 308 308 309 309 309 309 309 309 311 312 313 313 312 311 311 316 313 312 315 316 307 308 310 316 311 310 314 310 311 312 309 310 308 309 309 303 310 313 313 313 313 314 314 312 313 315 315 317 318 317 316
307 307 308 308 308 308 309 309 309 309 309 311 312 313 312 313 315 318 318 316 318 318 309 311 305 306 315 313 316 315 314 306 314 307 307 310 306 303 311 312 313 313 313 312 313 313 314 314 315 316 316 316 315 314
306 307 307 307 308 308 309 310 309 309 309 311 311 313 312 319 318 319 315 314 313 315 314 307 313 307 313 312 311 310 312 307 304 308 314 307 306 316 315 316 315 315 315 316 312 311 313 313 315 315 316 316 316 314
306 306 306 307 308 308 309 309 309 309 312 313 313 313 319 316 317 316 311 310 311 308 311 310 308 305 315 309 310 314 308 309 302 307 306 304 304 312 317 317 318 318 316 315 315 317 317 316 315 314 315 315 313 312
306 305 305 306 307 308 309 308 308 310 313 309 308 312 316 315 312 308 306 310 309 306 313 309 309 312 315 317 311 312 307 307 300 311 305 301 310 316 315 315 317 317 317 318 319 318 317 315 313 311 311 312 312 312
306 305 305 306 307 308 309 308 308 311 311 316 311 311 311 309 295 300 298 305 306 311 313 312 309 313 315 315 312 309 303 302 310 303 302 307 314 317 317 317 316 317 319 319 318 317 314 312 312 311 310 312 312 311
305 305 305 305 307 308 309 308 308 312 311 308 306 291 302 300 303 304 305 308 314 314 313 313 310 311 311 310 310 306 307 307 300 298 301 310 314 317 318 319 317 317 318 317 315 314 311 310 309 310 310 309 308 308
305 305 306 306 307 308 308 308 309 313 310 306 307 294 302 306 308 309 312 315 317 317 313 314 313 313 310 308 308 305 303 299 301 302 307 313 318 316 316 319 318 318 317 314 313 311 310 309 307 307 308 308 308 306
305 305 307 309 309 308 308 309 312 313 311 306 306 303 307 306 308 310 313 312 317 315 316 311 309 306 305 307 304 302 300 298 304 309 314 316 316 317 317 318 319 319 317 314 311 310 309 308 307 307 308 307 306 305
303 304 310 310 309 310 310 309 309 306 305 303 302 307 306 306 306 311 311 313 319 313 309 309 304 303 309 303 302 305 302 307 310 313 319 319 317 317 318 319 320 319 316 313 312 310 308 309 309 307 305 307 306 305
302 306 306 309 310 308 307 307 305 305 300 303 302 305 308 310 309 311 313 315 314 314 311 309 312 306 303 300 302 307 311 313 314 316 318 321 321 321 320 320 319 318 315 314 312 309 308 309 306 306 306 306 305 305
303 303 305 306 308 306 303 303 305 299 302 305 307 308 308 308 313 316 317 317 318 319 314 311 306 304 305 310 310 313 311 312 311 314 320 321 322 320 321 320 319 317 316 313 312 309 308 310 308 308 307 306 303 304
304 305 305 306 306 303 300 301 307 302 300 304 307 306 307 308 313 314 312 313 313 312 308 305 305 308 310 313 314 315 318 317 315 313 315 318 319 317 317 318 318 318 314 314 313 308 309 310 311 311 310 306 304 303
305 306 307 306 305 304 301 301 302 303 305 303 305 305 305 308 307 307 307 312 308 306 305 308 308 311 313 316 316 318 317 320 319 317 316 313 317 316 320 318 318 317 313 313 312 310 307 311 312 314 311 310 308 306
306 309 306 305 300 301 300 303 302 306 303 304 304 305 303 302 303 306 310 306 305 308 309 310 312 314 314 317 321 325 322 325 320 314 309 313 316 313 316 314 310 309 310 310 309 307 308 309 311 311 311 309 306 309
305 306 305 303 298 295 295 305 300 301 298 300 305 301 301 303 305 310 304 307 307 312 312 314 318 320 317 320 319 320 324 323 320 320 317 315 315 315 313 313 313 310 308 310 311 309 309 305 307 310 311 309 307 306
304 299 297 297 297 293 300 298 301 299 300 298 298 297 300 302 309 306 301 304 308 312 313 317 315 315 318 320 317 318 321 323 319 320 320 317 311 314 314 312 314 313 312 313 312 311 310 310 306 311 310 309 310 308
292 291 293 288 296 295 294 295 296 296 294 298 298 298 301 306 299 300 300 305 309 310 312 315 315 314 313 314 315 318 320 320 317 315 318 319 312 314 312 313 314 313 315 313 312 312 311 311 312 311 310 308 307 308
286 293 290 293 294 293 295 294 296 296 297 297 298 302 304 301 297 297 303 305 307 312 317 314 314 316 317 316 317 318 318 321 317 316 318 317 315 313 311 311 311 311 315 316 313 311 312 312 312 312 309 307 301 308
286 290 295 300 299 300 299 301 304 299 296 296 298 300 299 295 296 305 313 314 314 316 318 318 316 313 316 316 316 321 322 322 321 320 321 318 316 315 315 314 314 316 317 316 315 315 313 312 311 311 311 312 311 310
294 297 293 299 299 303 297 299 297 296 299 305 304 297 297 298 301 308 312 317 317 316 318 318 320 318 318 321 319 320 318 318 321 321 319 319 315 316 319 318 319 305 316 314 314 318 315 314 313 312 314 312 312 313
296 301 300 296 299 300 300 299 300 304 307 306 302 301 304 311 313 313 317 317 318 316 313 314 316 318 318 317 319 318 321 317 313 313 309 309 310 313 318 317 317 318 317 315 302 305 312 312 314 313 315 314 313 314
297 302 297 297 297 296 300 303 304 307 311 309 310 308 308 310 316 318 316 313 312 312 312 318 318 317 315 314 315 318 317 318 316 312 310 312 312 314 315 318 318 316 319 315 312 313 302 309 311 314 312 312 313 311
301 301 299 299 297 301 304 306 307 308 308 309 309 306 305 308 312 315 313 314 313 314 316 316 316 316 317 316 315 314 311 316 319 319 316 316 317 318 319 319 319 318 319 316 316 315 312 310 312 312 312 311 310 309
300 298 296 295 298 303 306 304 304 304 304 306 305 306 305 304 303 310 317 317 314 313 314 315 315 316 318 317 318 319 309 318 320 320 322 318 320 322 322 318 317 317 317 317 316 315 314 314 311 312 311 312 311 311
299 299 300 300 299 299 303 302 303 304 305 304 304 305 305 305 306 311 318 320 316 317 318 318 319 320 320 320 321 320 314 321 316 305 305 305 303 306 315 319 318 319 318 318 314 313 313 313 312 312 311 311 312 312
Wind_Speed
11 13 14 15 15 16 17 17 17 17 18 18 18 19 19 21 22 11 7 5 4 4 8 6 8 6 6 5 3 4 4 2 3 1 2 4 2 3 4 4 3 1 1 2 2 2 1 5 4 3 3 5 6 6
11 11 12 14 15 15 16 16 16 15 16 17 17 17 17 18 19 18 4 8 8 3 6 10 12 4 3 4 2 5 3 3 1 3 5 4 4 5 6 2 5 2 3 3 5 4 3 4 8 6 8 5 5 5
9 10 12 13 14 15 15 15 15 15 15 17 16 18 17 16 16 12 5 7 6 4 7 5 7 5 4 4 4 0 4 5 5 3 0 2 2 3 2 3 5 5 7 4 6 6 5 4 8 5 5 3 5 7
8 10 11 13 14 14 15 15 14 13 15 16 16 17 17 16 15 12 5 6 6 4 4 4 7 4 5 7 7 5 4 4 2 3 0 2 1 1 0 2 2 4 3 3 2 5 6 8 6 5 8 8 8 6
9 11 12 12 13 14 14 16 14 14 14 15 16 17 17 17 18 11 6 5 4 3 4 6 13 7 7 5 3 3 3 3 2 1 2 3 1 4 2 3 2 3 2 3 2 2 2 4 6 7 7 7 8 9
10 12 12 12 13 13 13 14 15 14 15 17 16 17 17 15 16 6 3 3 7 5 3 4 4 4 7 5 3 3 3 3 1 1 2 3 2 4 2 1 4 5 8 7 2 5 5 7 7 8 8 9 9 15
9 11 12 13 12 13 13 13 14 14 15 16 16 17 16 13 6 3 3 2 8 5 3 4 4 4 5 3 3 3 3 1 1 2 2 2 3 3 2 3 1 7 7 6 5 6 6 5 7 12 11 12 11 11
9 11 12 12 13 14 14 14 14 13 15 16 16 17 16 19 13 6 2 13 3 4 3 4 4 4 5 3 2 3 3 3 2 3 2 1 4 0 3 4 8 7 5 5 6 6 6 7 7 10 7 11 13 13
9 10 11 12 13 14 16 16 13 14 16 16 18 21 6 4 3 2 6 7 3 2 3 4 3 3 4 2 1 1 2 1 4 4 4 3 4 3 4 8 8 6 4 5 7 8 9 8 9 10 11 12 9 10
8 9 11 13 13 14 15 14 13 16 18 16 6 4 3 2 7 5 2 3 4 4 4 4 4 3 4 4 3 2 3 4 3 6 3 4 1 5 8 7 6 3 3 6 5 7 8 11 8 7 8 10 9 10
8 10 11 13 13 15 15 12 13 16 12 3 3 2 4 4 3 4 3 5 5 5 5 5 7 5 4 2 1 2 2 2 2 1 2 2 2 3 6 6 5 5 6 7 6 6 8 6 9 11 12 10 9 10
9 11 12 13 14 15 14 11 12 7 3 4 5 7 5 4 3 4 4 4 4 4 5 5 5 5 3 3 1 1 1 1 4 3 1 1 3 5 6 5 6 7 7 8 10 8 9 10 11 11 12 11 10 11
10 11 13 13 14 15 14 10 10 11 12 4 3 5 2 3 3 5 5 4 4 3 3 3 4 3 1 1 1 2 1 4 3 2 1 2 5 4 4 5 6 6 8 8 7 10 11 11 12 12 12 10 11 11
10 13 14 14 14 14 11 9 10 8 4 3 3 4 4 5 6 6 7 4 2 5 4 3 3 3 2 2 2 1 2 1 2 3 4 3 4 5 5 5 5 6 6 5 9 10 11 12 12 11 10 10 11 11
11 14 17 19 18 14 9 8 8 4 3 3 4 5 8 8 9 8 8 2 2 2 2 2 3 2 2 3 1 2 3 3 4 3 3 6 5 4 3 3 5 5 5 6 9 8 9 9 9 10 11 11 10 11
10 17 4 6 2 3 5 4 3 3 4 4 5 5 7 6 7 4 2 1 1 3 2 3 3 4 1 2 4 4 3 1 3 4 4 5 5 2 2 2 2 5 6 6 7 7 6 7 10 9 9 10 10 12
9 2 12 5 3 1 2 2 2 4 5 5 5 7 9 9 8 2 4 4 3 3 1 3 3 3 3 3 3 4 4 2 4 4 4 6 4 2 1 3 4 6 6 6 6 6 4 4 6 9 12 11 9 10
3 4 13 8 2 2 1 1 3 5 7 6 7 7 7 6 3 4 3 3 3 2 2 1 2 3 2 4 3 3 2 3 4 5 6 5 4 1 1 5 6 7 6 5 6 4 1 3 6 5 7 8 9 9
5 5 9 9 5 2 2 2 3 5 6 7 7 8 8 6 2 1 2 4 1 1 2 0 2 3 4 1 4 3 4 2 2 3 4 6 4 3 1 8 8 7 6 5 5 3 3 1 2 2 2 3 6 7
9 11 11 6 3 2 2 3 2 5 5 3 7 6 6 5 2 3 5 5 6 3 4 4 4 5 2 1 1 1 1 1 1 6 5 4 4 5 4 7 5 9 7 5 5 6 4 4 4 4 3 2 4 5
7 6 5 4 2 2 2 2 4 6 5 5 7 7 5 6 5 6 7 7 5 6 7 6 7 7 10 3 4 5 3 1 3 4 3 2 1 1 5 4 5 7 6 7 4 3 6 4 5 5 4 4 5 5
1 4 3 2 1 1 3 4 5 4 4 6 8 4 5 8 7 8 6 6 6 6 7 8 7 6 6 6 5 6 7 6 7 4 2 2 1 2 4 2 4 4 3 3 3 2 2 2 1 2 4 2 2 5
6 3 2 3 4 3 6 4 5 4 4 4 5 8 4 5 7 6 8 7 7 6 7 7 6 7 6 5 5 5 4 8 4 4 3 2 4 2 3 4 5 5 4 3 3 2 1 3 3 3 3 4 3 3
3 1 2 3 6 4 4 4 4 5 5 9 7 4 7 6 2 3 8 9 9 8 7 6 3 4 6 5 4 4 5 4 6 4 4 2 4 2 4 3 4 4 5 5 5 5 4 2 3 5 3 5 4 4
2 3 3 4 3 5 5 6 10 8 12 10 11 8 5 3 5 8 9 6 5 5 6 2 8 9 6 7 6 3 7 9 5 3 3 3 4 4 5 4 4 4 3 3 2 2 3 4 3 3 6 5 5 5
4 5 4 6 4 6 6 5 5 7 11 11 6 5 5 5 11 6 4 8 7 3 2 2 7 5 1 4 7 6 6 4 7 6 3 3 3 4 5 4 2 2 2 3 2 2 4 4 2 2 5 5 8 7
4 5 5 6 5 6 5 6 4 2 2 5 4 8 3 4 6 1 3 5 4 3 1 4 5 4 4 7 8 2 5 3 4 4 2 2 1 2 6 5 4 1 3 4 3 4 2 4 4 3 3 5 4 5
5 3 6 4 7 5 5 4 2 3 4 4 2 4 3 3 2 4 3 4 2 4 6 4 4 6 5 3 4 4 3 2 5 7 4 4 1 3 5 4 3 5 4 5 4 2 3 3 4 4 3 5 5 4
6 2 3 7 7 5 6 4 3 3 2 3 3 3 3 2 2 3 1 3 3 4 4 5 3 7 2 4 3 5 4 5 5 5 9 6 1 5 4 4 4 4 3 3 3 3 4 4 3 3 4 2 5 3
7 7 6 8 5 3 3 3 1 3 4 4 4 5 5 3 2 4 0 5 6 7 7 3 7 9 10 6 9 10 6 4 7 6 7 5 1 5 5 3 3 3 4 4 6 4 3 4 5 3 2 1 5 6
5 3 4 4 3 6 5 6 6 7 3 3 1 0 2 4 4 2 5 6 7 5 8 7 6 6 11 9 7 7 3 1 5 6 7 3 3 2 5 3 1 2 6 9 5 5 5 7 4 3 6 7 8 6
3 5 6 9 9 8 8 8 8 8 5 4 3 1 3 2 5 6 7 10 9 9 12 7 8 7 9 5 6 4 5 6 6 4 5 4 2 4 3 4 8 0 7 3 6 2 11 6 5 5 5 5 7 7
7 7 6 5 5 6 5 4 3 4 5 5 7 10 9 7 4 3 2 8 5 5 6 4 4 5 10 13 14 12 9 8 12 12 9 6 5 2 1 3 4 7 6 6 5 8 6 8 6 7 6 4 4 4
Wind_Direction
328 329 332 336 336 338 339 340 339 341 343 344 345 346 349 351 355 357 279 324 44 312 288 2 349 2 346 15 20 317 342 341 343 250 245 277 301 17 27 61 49 64 112 202 354 263 164 330 52 28 191 33 13 39
333 340 338 338 338 337 339 337 338 337 339 341 342 342 346 349 354 350 296 332 326 231 270 313 286 300 323 343 338 334 294 329 94 26 10 343 357 8 23 354 22 19 142 176 128 189 210 27 73 57 64 64 357 357
333 337 339 339 339 337 334 335 335 334 336 338 338 339 340 343 350 358 296 300 316 289 290 227 245 159 261 241 288 77 1 7 45 112 325 285 5 60 0 354 2 40 29 61 52 338 332 19 14 53 65 61 315 300
323 328 331 333 337 336 335 335 333 333 333 333 334 335 334 334 335 344 309 302 295 302 275 105 120 135 40 46 35 25 323 349 10 77 306 264 274 101 141 117 69 245 329 216 216 33 24 33 43 13 344 330 310 304
312 317 316 321 325 332 334 334 334 333 331 329 329 331 329 329 326 309 252 268 7 7 317 302 302 177 173 177 139 306 310 298 299 250 203 250 269 35 5 83 258 339 16 55 87 23 104 342 342 321 307 305 288 291
306 315 312 310 310 317 327 327 325 325 328 324 321 324 321 327 331 288 209 80 22 1 276 294 2 169 101 115 184 223 275 266 259 49 307 314 58 99 67 285 312 20 78 81 70 13 357 321 319 309 300 294 314 312
300 313 318 323 318 316 313 311 313 315 316 317 316 315 312 316 321 299 327 315 358 311 257 291 282 81 133 156 199 194 205 263 103 256 228 240 298 125 171 216 208 81 67 39 15 360 325 344 321 313 308 318 334 328
299 303 313 311 317 323 318 314 308 313 315 314 312 308 304 297 274 277 230 236 227 265 282 278 264 138 176 190 217 186 167 163 217 200 299 211 330 214 237 222 104 74 50 16 333 317 306 300 311 307 314 332 327 315
300 305 311 314 315 316 321 316 312 310 311 311 309 297 290 214 238 82 117 124 225 293 304 257 269 104 192 246 176 106 96 285 227 181 217 146 226 230 120 106 90 67 34 325 313 309 306 323 328 341 329 317 313 328
301 312 311 313 316 318 319 317 318 315 308 304 286 229 210 50 136 120 109 191 190 205 227 258 312 296 178 168 189 180 163 218 215 228 138 164 130 95 85 95 90 65 327 336 350 338 340 326 334 330 329 320 325 334
296 308 310 311 316 319 323 319 322 328 296 206 262 7 1 129 233 215 232 209 178 204 201 222 230 270 323 51 343 84 335 325 271 178 114 169 120 130 105 93 63 36 354 326 347 351 359 360 345 337 333 343 339 330
291 307 308 307 311 318 318 317 326 316 354 304 292 279 262 220 219 253 213 235 221 228 163 190 203 207 3 48 9 332 299 80 260 140 198 193 114 95 76 44 19 14 354 9 8 25 16 4 358 341 330 326 333 313
285 301 305 303 303 310 309 305 309 301 291 250 214 238 200 220 32 219 216 215 192 218 143 190 134 151 148 268 250 100 306 261 297 186 194 85 127 116 75 42 5 359 20 10 23 24 16 1 350 341 326 334 328 325
280 295 300 294 291 297 293 291 305 310 271 253 217 307 225 214 227 213 255 284 237 130 161 169 147 194 106 172 46 292 236 264 270 248 65 110 113 80 55 16 1 1 19 2 42 22 9 356 347 340 350 342 335 338
285 298 294 286 263 268 262 275 292 261 270 258 245 234 218 249 291 279 253 59 358 0 122 145 64 9 52 120 250 45 243 240 237 80 140 145 109 91 36 354 353 39 24 55 41 26 10 359 356 355 353 348 353 344
308 299 280 1 169 193 243 242 225 254 251 245 239 267 276 286 309 321 323 170 45 276 10 105 137 125 183 254 203 196 258 7 15 57 112 116 158 139 76 349 64 89 90 69 60 34 14 4 10 347 350 352 0 354
304 240 359 345 126 51 188 267 224 231 249 238 227 231 259 268 267 6 19 7 4 351 246 113 123 174 221 219 205 204 238 92 151 139 122 114 105 109 140 101 90 110 95 82 75 54 16 24 39 17 15 2 5 2
233 355 4 357 161 146 127 275 262 252 240 246 261 266 268 278 265 257 127 44 6 15 24 62 17 253 217 222 253 46 40 48 73 62 128 139 127 213 231 112 105 108 108 117 98 116 105 32 50 14 23 11 20 11
304 333 330 342 341 279 185 205 232 263 247 248 238 251 266 283 211 276 317 112 68 7 331 240 232 233 256 23 46 41 79 45 155 147 139 119 156 207 63 124 132 125 108 111 152 164 150 137 151 261 37 23 36 15
269 275 275 276 348 245 220 227 216 274 274 308 289 271 277 271 270 254 240 233 176 174 211 207 226 259 330 17 84 12 17 212 87 145 160 148 167 196 178 161 152 147 139 176 171 173 185 197 225 252 168 116 73 35
257 200 158 177 220 245 281 299 246 249 279 267 283 291 277 288 276 282 243 255 221 209 211 217 232 236 263 218 168 184 236 60 78 108 105 76 319 2 116 144 176 142 174 194 184 203 254 212 223 228 194 156 156 128
11 161 129 179 259 222 273 231 259 303 263 273 298 281 260 253 254 251 273 260 253 246 213 227 227 213 220 238 218 203 187 130 120 116 105 142 259 77 150 217 114 105 65 115 116 126 133 9 356 68 128 173 116 139
295 219 199 173 203 215 253 231 237 229 243 261 271 246 243 253 243 247 242 235 248 250 256 253 206 193 200 195 153 141 140 138 141 129 145 245 109 139 100 101 110 128 149 166 141 131 91 174 116 71 95 130 90 79
223 341 240 224 202 234 257 229 233 238 240 252 249 257 252 261 257 233 239 235 246 262 273 243 190 216 203 189 164 180 179 148 136 154 170 171 139 167 142 162 160 175 181 186 185 176 174 170 155 147 113 72 99 121
143 237 216 220 263 229 223 241 222 243 246 243 234 241 257 225 232 244 257 261 238 232 249 233 202 199 188 185 192 192 163 135 141 152 190 188 191 173 183 194 184 194 167 102 40 75 114 185 155 108 136 119 96 57
219 218 211 198 212 229 209 240 226 222 239 254 244 241 225 248 245 253 241 230 245 242 221 160 57 29 60 147 123 124 115 125 144 197 188 190 219 181 146 145 133 355 183 144 125 81 84 89 74 151 133 145 156 128
234 229 228 224 248 250 272 265 239 150 281 261 223 224 217 235 239 212 25 32 20 358 80 32 86 82 261 130 105 138 132 168 169 186 155 143 11 248 129 130 113 109 21 119 78 91 43 347 218 34 81 113 101 102
256 230 230 234 239 243 266 270 191 231 244 250 315 244 236 251 25 336 18 38 334 8 50 28 6 55 3 351 109 134 103 258 186 187 149 122 270 145 120 140 145 103 43 44 31 199 214 275 73 29 48 87 143 140
225 227 272 268 267 215 222 231 214 163 295 290 290 277 287 319 94 241 20 58 313 310 348 328 65 189 235 360 24 330 214 179 165 153 128 122 175 225 136 136 150 159 166 128 56 10 24 64 45 23 15 117 125 57
230 176 191 229 243 248 250 277 329 206 173 200 230 270 276 278 260 127 51 331 321 298 287 220 214 168 145 172 235 230 217 173 178 163 176 172 310 175 145 158 166 226 163 129 219 176 307 295 302 281 194 231 125 134
246 273 226 225 260 269 274 264 274 287 283 206 271 0 320 319 302 231 209 239 259 239 254 219 193 160 176 182 166 149 124 142 155 132 101 103 4 85 152 191 241 232 176 178 203 203 195 236 228 116 103 110 108 116
263 253 256 270 276 298 309 304 292 276 269 195 126 61 355 311 287 211 210 175 205 235 230 203 190 160 134 145 99 39 198 178 139 139 160 142 193 275 349 52 314 50 137 191 179 216 167 143 90 85 96 89 131 122
240 261 286 295 273 262 262 220 241 264 225 215 199 198 212 218 261 242 220 185 177 174 168 189 238 170 166 145 146 183 192 157 159 141 127 138 130 53 353 45 79 54 76 47 60 77 93 106 100 100 89 62 57 134